Regional Weather Roundup
Issued by NWS

Home | Current Version | Previous Version | Graphics & Text | Print | Product List | Glossary On
Versions: 1 2 3 4 5 6 7 8 9 10 11 12 13 14 15 16 17 18 19 20 21 22 23 24 25 26 27 28 29 30 31 32 33 34 35 36 37 38 39 40 41 42 43 44 45 46 47 48 49 50
000
ASUS43 KFSD 221902
RWRSD

WEATHER ROUNDUP FOR SOUTH DAKOTA
NATIONAL WEATHER SERVICE SIOUX FALLS SD
200 PM CDT SUN APR 22 2018

NOTE: "FAIR" INDICATES FEW OR NO CLOUDS BELOW 12,000 FEET WITH NO
SIGNIFICANT WEATHER AND/OR OBSTRUCTIONS TO VISIBILITY.


SDZ001>005-009-010-012>017-222000-
NORTHWEST AND NORTH CENTRAL SOUTH DAKOTA

CITY           SKY/WX    TMP DP  RH WIND       PRES   REMARKS
BUFFALO          N/A     65  28  24 NE12      30.05F
FAITH            N/A     61  40  45 SW12G20   30.12F
MOBRIDGE       SUNNY     62  40  44 S18       30.14F
$$

SDZ012>016-024>037-041>051-057-063-072>074-222000-
SOUTHWEST AND SOUTH CENTRAL SOUTH DAKOTA

CITY           SKY/WX    TMP DP  RH WIND       PRES   REMARKS
RAPID CTY ARPT SUNNY     61  38  42 VRB3      30.12F
PIERRE         SUNNY     61  39  44 S21G26    30.16F
CUSTER         SUNNY     59  34  39 VRB6      30.14F
PHILIP         SUNNY     61  38  42 S7        30.14F
PINE RIDGE     MOSUNNY   59  40  49 VRB3      30.14F
SPEARFISH      FAIR      59  41  51 N8        30.13F
WINNER         FAIR      58  38  47 S12       30.21F
$$

SDZ004>011-016>023-039-040-222000-
NORTHEAST SOUTH DAKOTA

CITY           SKY/WX    TMP DP  RH WIND       PRES   REMARKS
ABERDEEN       SUNNY     63  35  35 S20       30.22F
WATERTOWN      SUNNY     58  36  43 S13       30.24F
BROOKINGS      SUNNY     57  37  47 SE15G22   30.26F
SISSETON         N/A     62  40  44 S14       30.23F
$$

SDZ017-020-022-023-036>040-048>070-222000-
SOUTHEAST SOUTH DAKOTA

CITY           SKY/WX    TMP DP  RH WIND       PRES   REMARKS
SIOUX FALLS    MOSUNNY   60  35  39 E12G22    30.25F
HURON          NOT AVBL
CHAMBERLAIN    SUNNY     59  40  49 S7        30.22F
MITCHELL       SUNNY     59  36  42 SE14G21   30.24F
YANKTON        SUNNY     60  37  42 SE16      30.23F
$$

ABBREVIATIONS USED IN REMARKS
   TC - TEMPERATURE IN CELSIUS
  WCI - WIND CHILL INDEX
   HX - HEAT INDEX
  VSB - VISIBILITY





USA.gov is the U.S. government's official web portal to all federal, state and local government web resources and services.